Weather History for KPKD - November, 2011

Change the Weather History Date:

Wednesday, November 16, 2011

  Actual Average Record
Temperature  
Mean Temperature 18 °F -  
Max Temperature 24 °F 36 °F 63 °F (1953)
Min Temperature 12 °F 19 °F -8 °F (1959)
Degree Days  
Heating Degree Days 47    
Moisture  
Dew Point 14 °F    
Average Humidity 77    
Maximum Humidity 86    
Minimum Humidity 68    
Precipitation  
Precipitation 0.00 in - - ()
Sea Level Pressure  
Sea Level Pressure 30.02 in    
Wind  
Wind Speed 14 mph (WNW)    
Max Wind Speed 21 mph    
Max Gust Speed 28 mph    
Visibility 7 miles    
Events Snow    
Averages and records for this station are not official NWS values.
T = Trace of Precipitation, MM = Missing Value Source: NWS Daily Summary

Daily Weather History Graph

Daily Weather History Graph

Search for Another Location

Airport or City:

Trip Planner

Search our weather history database for the weather conditions in past years. The results will help you decide how hot, cold, wet, or windy it might be!

Date:

Astronomy

Nov. 16, 2011 Rise Set
Actual Time 7:24 AM CST 4:45 PM CST
Civil Twilight 6:51 AM CST 5:18 PM CST
Nautical Twilight 6:14 AM CST 5:55 PM CST
Astronomical Twilight 5:38 AM CST 6:31 PM CST
Moon 10:03 PM CST (11/16) 11:59 AM CST (11/16)
Length of Visible Light 10h 26m
Length of Day
9h 20m
Waning Gibbous, 70% of the Moon is Illuminated
Nov 16
Waning Gibbous
Nov 18
Last Quarter
Nov 25
New
Dec 2
First Quarter
Dec 10
Full

Hourly Weather History & Observations

Time (CST) Temp. Windchill Dew Point Humidity Pressure Visibility Wind Dir Wind Speed Gust Speed Precip Events Conditions
12:13 AM 24.8 °F 12.4 °F 19.4 °F 80% 29.84 in 10.0 mi WNW 15.0 mph - N/A   Overcast
12:53 AM 24.8 °F 13.4 °F 17.6 °F 74% 29.84 in 10.0 mi WNW 12.7 mph - N/A   Overcast
1:53 AM 21.9 °F 8.7 °F 16.0 °F 78% 29.92 in 10.0 mi West 15.0 mph - N/A   Partly Cloudy
2:53 AM 19.9 °F 8.6 °F 15.1 °F 81% 29.94 in 10.0 mi West 10.4 mph - N/A   Clear
3:53 AM 18.0 °F 6.9 °F 14.0 °F 84% 29.95 in 10.0 mi West 9.2 mph - N/A   Clear
4:53 AM 15.1 °F 6.4 °F 10.9 °F 84% 29.96 in 10.0 mi West 5.8 mph - N/A   Partly Cloudy
5:53 AM 17.1 °F 5.0 °F 12.0 °F 81% 29.98 in 10.0 mi WNW 10.4 mph - N/A   Clear
6:53 AM 17.1 °F 3.6 °F 10.9 °F 77% 29.99 in 10.0 mi West 12.7 mph - N/A   Clear
7:53 AM 17.1 °F 5.8 °F 12.0 °F 81% 30.01 in 10.0 mi West 9.2 mph - N/A   Clear
8:49 AM 19.4 °F 4.1 °F 12.2 °F 74% 29.95 in 10.0 mi West 18.4 mph 24.2 mph N/A   Mostly Cloudy
8:53 AM 19.9 °F 6.2 °F 12.9 °F 74% 30.02 in 10.0 mi West 15.0 mph 24.2 mph N/A   Scattered Clouds
9:41 AM 21.2 °F 6.8 °F 14.0 °F 74% 29.96 in 10.0 mi WNW 17.3 mph - N/A   Mostly Cloudy
9:53 AM 19.9 °F 4.8 °F 12.0 °F 71% 30.04 in 10.0 mi WNW 18.4 mph 27.6 mph N/A   Scattered Clouds
10:35 AM 21.2 °F 5.6 °F 12.2 °F 68% 29.97 in 10.0 mi WNW 20.7 mph 27.6 mph N/A   Mostly Cloudy
10:53 AM 21.9 °F 7.8 °F 12.9 °F 68% 30.05 in 9.0 mi WNW 17.3 mph - 0.00 in   Overcast
11:53 AM 21.0 °F 6.2 °F 12.0 °F 68% 30.06 in 9.0 mi West 18.4 mph 27.6 mph 0.00 in   Overcast
12:49 PM 21.2 °F 6.4 °F 12.2 °F 68% 29.98 in 5.0 mi WNW 18.4 mph - 0.00 in Snow Light Snow
12:53 PM 21.0 °F 6.2 °F 12.9 °F 71% 30.06 in 6.0 mi WNW 18.4 mph 23.0 mph 0.00 in Snow Light Snow
1:01 PM 19.4 °F 4.5 °F 12.2 °F 74% 29.98 in 2.0 mi West 17.3 mph - 0.00 in Snow Light Snow
1:04 PM 19.4 °F 5.0 °F 14.0 °F 80% 29.98 in 1.8 mi WNW 16.1 mph - 0.00 in Snow Light Snow
1:13 PM 21.2 °F 8.3 °F 15.8 °F 80% 29.98 in 3.0 mi WNW 13.8 mph - 0.00 in Snow Light Snow
1:26 PM 21.2 °F 7.8 °F 15.8 °F 80% 29.98 in 2.0 mi WNW 15.0 mph 21.9 mph N/A Snow Light Snow
1:35 PM 21.2 °F 6.8 °F 14.0 °F 74% 29.98 in 8.0 mi West 17.3 mph - 0.00 in Snow Light Snow
1:53 PM 21.9 °F 8.7 °F 14.0 °F 72% 30.06 in 7.0 mi West 15.0 mph 24.2 mph 0.00 in Snow Light Snow
2:18 PM 21.2 °F 6.4 °F 12.2 °F 68% 29.99 in 9.0 mi West 18.4 mph 24.2 mph 0.00 in Snow Light Snow
2:32 PM 21.2 °F 6.4 °F 14.0 °F 74% 29.99 in 3.0 mi West 18.4 mph - 0.00 in Snow Light Snow
2:53 PM 21.0 °F 6.2 °F 14.0 °F 74% 30.08 in 5.0 mi West 18.4 mph 24.2 mph 0.00 in Snow Light Snow
3:02 PM 21.2 °F 7.3 °F 15.8 °F 80% 30.00 in 1.8 mi West 16.1 mph - 0.00 in Snow Light Snow
3:44 PM 19.4 °F 7.2 °F 15.8 °F 86% 30.02 in 3.0 mi West 11.5 mph - 0.00 in Snow Light Snow
3:53 PM 21.0 °F 8.1 °F 15.1 °F 78% 30.09 in 4.0 mi West 13.8 mph - 0.00 in Snow Light Snow
4:04 PM 21.2 °F 8.9 °F 15.8 °F 80% 30.02 in 2.5 mi West 12.7 mph - 0.00 in Snow Light Snow
4:13 PM 21.2 °F 7.8 °F 15.8 °F 80% 30.02 in 5.0 mi West 15.0 mph - 0.00 in Snow Light Snow
4:37 PM 21.2 °F 8.9 °F 15.8 °F 80% 30.03 in 1.8 mi WNW 12.7 mph - 0.00 in Snow Light Snow
4:53 PM 19.9 °F 6.7 °F 15.1 °F 81% 30.12 in 3.0 mi WNW 13.8 mph - 0.00 in Snow Light Snow
5:53 PM 19.4 °F 5.0 °F 15.8 °F 86% 30.05 in 7.0 mi West 16.1 mph - N/A Snow Light Snow
6:53 PM 19.9 °F 6.7 °F 14.0 °F 78% 30.14 in 9.0 mi WNW 13.8 mph - 0.00 in Snow Light Snow
7:53 PM 19.0 °F 5.6 °F 12.0 °F 74% 30.15 in 10.0 mi West 13.8 mph - 0.00 in   Overcast
8:53 PM 19.0 °F 5.6 °F 12.0 °F 74% 30.14 in 10.0 mi WNW 13.8 mph - 0.00 in   Overcast
9:53 PM 18.0 °F 6.1 °F 12.0 °F 78% 30.15 in 10.0 mi WNW 10.4 mph - N/A   Overcast
10:53 PM 17.1 °F 6.6 °F 12.0 °F 81% 30.15 in 10.0 mi West 8.1 mph - N/A   Overcast
11:51 PM 12.2 °F 0.7 °F 8.6 °F 85% 30.06 in 10.0 mi West 8.1 mph - N/A   Scattered Clouds
11:53 PM 12.9 °F 1.6 °F 9.0 °F 84% 30.15 in 10.0 mi West 8.1 mph - N/A   Scattered Clouds